TimeEDT,TemperatureF,Dew PointF,Humidity,Sea Level PressureIn,VisibilityMPH,Wind Direction,Wind SpeedMPH,Gust SpeedMPH,PrecipitationIn,Events,Conditions,WindDirDegrees,DateUTC
12:51 AM,60.1,50.0,69,30.13,10.0,South,8.1,-,N/A,,Clear,170,2013-05-07 04:51:00
1:51 AM,57.9,50.0,75,30.13,10.0,South,5.8,-,N/A,,Clear,170,2013-05-07 05:51:00
2:51 AM,57.0,50.0,77,30.13,10.0,SSE,3.5,-,N/A,,Clear,150,2013-05-07 06:51:00
3:51 AM,55.0,48.9,80,30.13,10.0,Calm,Calm,-,N/A,,Clear,0,2013-05-07 07:51:00
4:51 AM,52.0,48.0,86,30.14,10.0,Calm,Calm,-,N/A,,Clear,0,2013-05-07 08:51:00
5:51 AM,52.0,48.9,89,30.15,10.0,SSE,3.5,-,N/A,,Partly Cloudy,160,2013-05-07 09:51:00
6:51 AM,55.0,50.0,83,30.16,10.0,Calm,Calm,-,N/A,,Partly Cloudy,0,2013-05-07 10:51:00
7:51 AM,57.9,51.1,78,30.16,10.0,Calm,Calm,-,N/A,,Clear,0,2013-05-07 11:51:00
8:51 AM,62.1,51.1,67,30.17,10.0,SSE,4.6,-,N/A,,Partly Cloudy,160,2013-05-07 12:51:00
9:51 AM,66.0,51.1,59,30.16,10.0,Calm,Calm,-,N/A,,Partly Cloudy,0,2013-05-07 13:51:00
10:51 AM,69.1,51.1,53,30.15,10.0,Calm,Calm,-,N/A,,Scattered Clouds,0,2013-05-07 14:51:00
11:51 AM,71.6,51.8,50,30.14,10.0,NE,3.5,-,N/A,,Scattered Clouds,40,2013-05-07 15:51:00
12:51 PM,77.0,50.0,39,30.11,10.0,Calm,Calm,-,N/A,,Scattered Clouds,0,2013-05-07 16:51:00
1:51 PM,77.0,46.9,34,30.09,10.0,SSW,4.6,-,N/A,,Scattered Clouds,210,2013-05-07 17:51:00
2:51 PM,79.0,46.9,32,30.07,10.0,SSW,5.8,-,N/A,,Scattered Clouds,210,2013-05-07 18:51:00
3:51 PM,79.0,46.9,32,30.05,10.0,SSW,6.9,-,N/A,,Scattered Clouds,200,2013-05-07 19:51:00
4:51 PM,79.0,45.0,30,30.04,10.0,South,4.6,-,N/A,,Scattered Clouds,190,2013-05-07 20:51:00
5:51 PM,78.1,45.0,31,30.04,10.0,South,8.1,-,N/A,,Mostly Cloudy,190,2013-05-07 21:51:00
6:51 PM,77.0,45.0,32,30.04,10.0,South,10.4,-,N/A,,Mostly Cloudy,190,2013-05-07 22:51:00
7:51 PM,75.0,45.0,34,30.05,10.0,South,6.9,-,N/A,,Mostly Cloudy,180,2013-05-07 23:51:00
8:51 PM,72.0,46.0,40,30.08,10.0,South,9.2,-,N/A,,Overcast,170,2013-05-08 00:51:00
9:51 PM,70.0,50.0,49,30.11,10.0,South,9.2,-,N/A,,Overcast,170,2013-05-08 01:51:00
10:51 PM,68.0,52.0,56,30.12,10.0,South,10.4,-,N/A,,Overcast,180,2013-05-08 02:51:00
11:51 PM,66.0,53.1,63,30.12,10.0,South,8.1,-,N/A,,Mostly Cloudy,170,2013-05-08 03:51:00